Regional Weather Roundup
Issued by NWS

Home | Current Version | Previous Version | Graphics & Text | Print | Product List | Glossary On
Versions: 1 2 3 4 5 6 7 8 9 10 11 12 13 14 15 16 17 18 19 20 21 22 23 24 25 26 27 28 29 30 31 32 33 34 35 36 37 38 39 40 41 42 43 44 45 46 47 48 49 50
000
ASUS43 KDMX 020204
RWRIA

WEATHER ROUNDUP FOR IOWA
NATIONAL WEATHER SERVICE DES MOINES IA
  ISSUED BY NWS QUAD CITIES IA IL
800 PM CST SUN MAR 01 2015

NOTE: "FAIR" INDICATES FEW OR NO CLOUDS BELOW 12,000 FEET WITH NO
SIGNIFICANT WEATHER AND/OR OBSTRUCTIONS TO VISIBILITY.

* - THESE STATIONS ARE NOT NWS STATIONS...THUS NOT UNDER NWS
QUALITY CONTROL.  THEY ALSO DO NOT REPORT WEATHER SUCH
AS PRECIPITATION OR FOG.

IAZ001>003-012>014-020>022-031>034-043>046-020300-
   NORTHWEST IOWA

CITY           SKY/WX    TMP DP  RH WIND       PRES   REMARKS
CARROLL *      CLOUDY    21  16  79 SW6       30.37S WCI  14
CHEROKEE *     CLEAR     25  14  62 NW7       30.39R WCI  18
DENNISON *     PTCLDY    21  16  79 CALM      30.37R
LE MARS *      CLEAR     23  16  74 NW6       30.40R WCI  16
ORANGE CITY *  CLEAR     27  16  63 N10       30.37S WCI  17
SHELDON *      CLEAR     21  16  79 NW8       30.36S WCI  12
SIOUX CITY     CLEAR     29  13  51 N9        30.40R WCI  20
SPENCER        CLEAR     21  14  74 NW8       30.37R WCI  11
STORM LAKE *   CLEAR     25  14  63 NW8       30.37R WCI  16
$$

IAZ055>058-069>071-079>083-090>094-020300-
   SOUTHWEST IOWA

CITY           SKY/WX    TMP DP  RH WIND       PRES   REMARKS
ATLANTIC *     CLEAR     23  19  86 CALM      30.39S
AUDUBON *      CLEAR     18  12  79 CALM      30.38S
CLARINDA *     MOCLDY    23  18  80 CALM      30.43R
COUNCIL BLFS * CLEAR     32  16  51 N5        30.38R WCI  27
CRESTON *      PTCLDY    27  16  63 N7        30.40R WCI  19
HARLAN *       CLEAR     25  21  86 SW5       30.42R WCI  19
LAMONI         MOCLDY    29  19  66 N7        30.41R WCI  22
RED OAK *      PTCLDY    27  19  74 CALM      30.40F
SHENANDOAH *   MOCLDY    25  18  74 NE3       30.41F
$$

IAZ047>049-059>061-072>074-084-020300-
   CENTRAL IOWA

CITY           SKY/WX    TMP DP  RH WIND       PRES   REMARKS
AMES           CLEAR     17  12  80 SW6       30.38S WCI   9
ANKENY *       CLEAR     25  14  63 SW3       30.40S
BOONE *        CLEAR     25  18  74 W3        30.36S
CHARITON *     PTCLDY    27  18  69 N7        30.41R WCI  19
DES MOINES     PTCLDY    28  14  55 CALM      30.40S
GRINNELL *     CLEAR     21  14  74 SW7       30.39S WCI  12
KNOXVILLE *    CLEAR     25  16  68 NW3       30.40R
MARSHALLTOWN   CLEAR     16  10  77 W7        30.36S WCI   6
NEWTON *       CLEAR     23  14  68 W5        30.40R WCI  17
PELLA *        CLEAR     22  18  84 NW5       30.43R WCI  16
PERRY *          N/A     24  20  85 SW5       30.38F WCI  18
$$

IAZ004>006-015-016-023>025-035-036-020300-
   NORTH CENTRAL IOWA

CITY           SKY/WX    TMP DP  RH WIND       PRES   REMARKS
ALGONA *       CLEAR     21 N/A N/A NW10      30.36S WCI  10
CLARION *      PTCLDY    16  14  93 W6        30.36S WCI   7
ESTHERVILLE    CLEAR     22  14  71 NW15      30.35R WCI   9
FORT DODGE *   PTCLDY    23  14  68 W7        30.38R WCI  15
MASON CITY     CLEAR     19  11  70 W9        30.34S WCI   8
FOREST CITY *  FAIR      19  10  68 W6        30.33S WCI  11
WEBSTER CITY * MOCLDY    19  19 100 W9        30.35S WCI   9
IOWA FALLS *   FAIR      13   9  83 W6        30.36S WCI   4
$$

IAZ007>011-017>019-026>030-037>042-050>054-066-020300-
   NORTHEAST IOWA

CITY           SKY/WX    TMP DP  RH WIND       PRES   REMARKS
CEDAR RAPIDS   CLEAR     15  10  80 W9        30.37R WCI   3
CHARLES CITY * PTCLDY    18  10  73 W9        30.33S WCI   6
CLINTON *      CLEAR     18   9  68 NW13      30.39S WCI   4
DECORAH *      PTCLDY    18   9  68 VRB6G13   30.30S WCI   9
DUBUQUE        CLEAR     14   7  73 SW5       30.34R WCI   6
MONTICELLO *   CLEAR     12   9  85 CALM      30.37R
OELWEIN *      CLEAR     14   9  79 W9        30.35R WCI   2
WATERLOO       CLEAR     17  11  77 W8        30.36R WCI   7
$$

IAZ064-065-067-068-078-020300-
   EAST CENTRAL IOWA

CITY           SKY/WX    TMP DP  RH WIND       PRES   REMARKS
DAVENPORT      CLEAR     15   9  76 MISG      30.39R
IOWA CITY      CLEAR     21  12  68 NW5       30.42R WCI  15
MT. PLEASANT * PTCLDY    22  17  79 NW5       30.41R WCI  16
MUSCATINE *    CLEAR     23  12  63 NW7       30.42R WCI  15
QUAD CITIES    PTCLDY    24  14  65 W10       30.39R WCI  14
$$

IAZ062-063-075>077-085>089-095>099-020300-
   SOUTHEAST IOWA

CITY           SKY/WX    TMP DP  RH WIND       PRES   REMARKS
BURLINGTON     PTCLDY    22  17  81 W3        30.40R
FAIRFIELD *    CLEAR     19  12  73 N9        30.42R WCI   9
FORT MADISON * PTCLDY    25  18  74 CALM      30.41R
KEOKUK *       CLOUDY    23  19  86 SW5       30.41R WCI  17
OSKALOOSA *    FAIR      21  14  75 N8        30.42R WCI  12
CENTERVILLE *  FAIR      25  19  80 NW7       30.43R WCI  17
OTTUMWA        CLEAR     21  15  78 NW8       30.42R WCI  11
WASHINGTON *   CLEAR     23  19  86 NW8       30.41R WCI  14
$$

ABBREVIATIONS USED IN REMARKS
   TC - TEMPERATURES IN CELSIUS
  WCI - WIND CHILL INDEX
   HX - HEAT INDEX
  VSB - VISIBILITY
$$


USA.gov is the U.S. government's official web portal to all federal, state and local government web resources and services.